BRITE-TORONTO (40020 NORAD) Tracking and Keplerian Element Data

This shows tracking and keplerian element data for the satellite.

Feedback or suggestion? Click here.




ElementValue
Catalog40020
NameBRITE-TORONTO
Epoch Orbit23533
Epoch Day316.55221739
Epoch Year2018
RAAN167.192
Inclination97.7657
Eccentricity0.0088525
Argument of Perigee131.5306
Mean Anonmoly229.3537
Mean Motion14.66530773
Decay Rate3.4E-07
L11 40020U 14033L 18316.55221739 .00000034 00000-0 13960-4 0 9990
L22 40020 97.7657 167.1920 0088525 131.5306 229.3537 14.66530773235331

Live tracking and technical data element details for BRITE-TORONTO (NORAD 40020). BRITE-TORONTO can be tracked NOW for your location showing map with azimuth and elevation plus other details from your city location.

Track the satellite on the map from your city or location and see movement details for azimuth, elevation, latitude, longitude, range, height, and movement on the map or in text.







IsCatalogInMostPopularTable: catalog: 40020, numindb: 79
Update: records affected: 1



GetName: 40020 BRITE-TORONTO

Hit Count: updated at: Mon, 12 Nov 2018 21:44:55 GMT